Home > Time Zones > World Clock > Weather > Italy > Genoa > Past weeks

Flag for Italy Weather past 2 weeks in Genoa, Italy

Now
79 °F

Clear.


Feels Like: 81 °F
Forecast: 74 / 90 °F
Wind: 5 mph from Northwest

Location: Genova / Sestri

Current Time: Jul 5, 2015 at 1:34:43 AM

Latest Report: Jul 5, 2015 at 12:50 AM


Visibility: 10 mi

Pressure: 30.09 "Hg

Humidity: 65%

Dew point: 66 °F

Location of GenoaLocation

Historic Weather in Genoa — Graph

°F

Genoa temperature yesterday

Maximum temperature yesterday: 88 °F (at 3:50 PM)
Minimum temperature yesterday: 81 °F (at 8:50 PM)
Average temperature yesterday: 84 °F

Past Weeks' High & Low Weather Summary

 TemperatureHumidityPressure
High88 °F (Jul 3, 8:20 PM)88% (Jun 23, 9:20 PM)30.24 "Hg (Jun 23, 9:20 PM)
Low66 °F (Jun 24, 4:50 AM)23% (Jun 24, 4:50 PM)29.77 "Hg (Jun 23, 3:50 AM)
Average76 °F61%30.04 "Hg
* Reported Jun 20 12:50 AM — Jul 5 12:20 AM, Genoa, Weather by CustomWeather, © 2015

Note: Actual official high and low records may vary slightly from our data, if they occured in-between our weather recording intervals... More about our weather records

Advertising

Genoa weather history for previous 24 hours

 ConditionsComfort  
Time TempWeatherWind HumidityBarometerVisibility
12:20 AM
Sun, Jul 5
81 °FPassing clouds.6 mph62%30.09 "HgN/A
11:50 PM
Sat, Jul 4
81 °FPassing clouds.5 mph62%30.09 "HgN/A
11:20 PM81 °FClear.6 mph62%30.09 "Hg10 mi
10:50 PM81 °FPassing clouds.5 mph66%30.09 "HgN/A
10:20 PM81 °FClear.6 mph70%30.09 "Hg10 mi
9:50 PM81 °FSunny.6 mph74%30.09 "Hg10 mi
9:20 PM81 °FSunny.2 mph70%30.09 "Hg10 mi
8:50 PM81 °FSunny.5 mph74%30.09 "Hg10 mi
8:20 PM82 °FSunny.7 mph70%30.09 "Hg10 mi
7:50 PM82 °FSunny.7 mph66%30.09 "Hg10 mi
7:20 PM84 °FSunny.5 mph62%30.09 "Hg10 mi
6:50 PM84 °FSunny.5 mph66%30.09 "Hg10 mi
6:20 PM84 °FSunny.5 mph66%30.12 "Hg10 mi
5:50 PM84 °FSunny.6 mph66%30.12 "Hg10 mi
5:20 PM84 °FSunny.7 mph70%30.12 "Hg10 mi
4:50 PM86 °FPassing clouds.8 mph62%30.12 "HgN/A
4:20 PM86 °FSunny.7 mph62%30.12 "Hg10 mi
3:50 PM88 °FSunny.5 mph59%30.12 "Hg10 mi
3:20 PM86 °FSunny.6 mph59%30.15 "Hg10 mi
2:50 PM86 °FPassing clouds.5 mph59%30.15 "HgN/A
2:20 PM86 °FPassing clouds.5 mph59%30.15 "HgN/A
1:50 PM86 °FPassing clouds.3 mph59%30.15 "HgN/A
1:20 PM84 °FSunny.6 mph66%30.15 "Hg10 mi
12:50 PM86 °FSunny.7 mph59%30.15 "Hg10 mi
12:20 PM86 °FSunny.7 mph52%30.18 "Hg10 mi
11:50 AM86 °FSunny.6 mph52%30.18 "Hg10 mi
11:20 AM86 °FPassing clouds.5 mph52%30.18 "HgN/A
10:50 AM82 °FSunny.7 mph70%30.18 "Hg10 mi
10:20 AM84 °FSunny.8 mph62%30.18 "Hg10 mi
9:50 AM86 °FSunny.3 mph49%30.18 "Hg10 mi
9:20 AM86 °FSunny.2 mph49%30.18 "Hg10 mi
8:50 AM84 °FPassing clouds.5 mph55%30.18 "HgN/A
8:20 AM86 °FPassing clouds.5 mph46%30.18 "HgN/A
7:50 AM84 °FSunny.3 mph51%30.18 "Hg10 mi
7:20 AM84 °FSunny.No wind51%30.18 "Hg10 mi
6:50 AM82 °FSunny.2 mph55%30.15 "Hg10 mi
6:20 AM84 °FClear.3 mph45%30.15 "Hg10 mi
5:50 AM84 °FPassing clouds.5 mph48%30.15 "HgN/A
5:20 AM84 °FPassing clouds.12 mph48%30.15 "HgN/A
4:50 AM84 °FPassing clouds.9 mph45%30.15 "HgN/A
4:20 AM84 °FPassing clouds.15 mph48%30.15 "HgN/A
3:50 AM84 °FPassing clouds.13 mph45%30.15 "HgN/A
3:20 AM84 °FPassing clouds.6 mph45%30.18 "HgN/A
2:50 AM84 °FClear.5 mph51%30.18 "Hg10 mi
2:20 AM84 °FPassing clouds.3 mph48%30.21 "HgN/A
1:50 AM82 °FClear.2 mph51%30.18 "Hg10 mi
1:20 AM84 °FClear.3 mph48%30.21 "Hg10 mi
Weather by CustomWeather, © 2015

See weather overviewHow to use our weather pages